Regional Weather Roundup
Issued by NWS

Home | Current Version | Previous Version | Text Only | Print | Product List | Glossary Off
Versions: 1 2 3 4 5 6 7 8 9 10 11 12 13 14 15 16 17 18 19 20 21 22 23 24 25 26 27 28 29 30 31 32 33 34 35 36 37 38 39 40 41 42 43 44 45 46 47 48 49 50

830
ASUS45 KCYS 171110
RWRWY

WYOMING REGIONAL WEATHER ROUNDUP
NATIONAL WEATHER SERVICE CHEYENNE WY
500 AM MDT TUE OCT 17 2017

NOTE:  "FAIR" INDICATES FEW OR NO CLOUDS BELOW 12,000 FEET
WITH NO SIGNIFICANT WEATHER AND/OR OBSTRUCTIONS TO VISIBILITY.

WYZ001-171200-
YELLOWSTONE NATIONAL PARK

CITY           SKY/WX    TMP DP  RH WIND       PRES   REMARKS
LK YELLOWSTONE   N/A     22  32 100 NW3       30.37F
W YELLOWSTONE  NOT AVBL

$$
WYZ002>013-054>058-071-098>099-171200-
NORTHERN WYOMING

CITY           SKY/WX    TMP DP  RH WIND       PRES   REMARKS
JACKSON        NOT AVBL
CODY           FAIR      55  16  21 W9G18     30.18S
GREYBULL       FAIR      32  27  81 CALM      30.16S
WORLAND        FAIR      33  29  85 CALM      30.17R
SHERIDAN       FAIR      38  25  59 CALM      30.08S
BUFFALO        FAIR      49  13  23 W8        30.12F
GILLETTE       FAIR      49  21  33 SW6       30.10S
HULETT         FAIR      43  25  49 SW8       30.10S
NEWCASTLE      FAIR      34  27  75 NE3       30.14S

$$
WYZ014>020-022>026-101>103-171200-
CENTRAL WYOMING

CITY           SKY/WX    TMP DP  RH WIND       PRES   REMARKS
BIG PINEY      FAIR      22  12  65 NE3       30.38F
PINEDALE       FAIR      19  16  86 W3        30.39S
DUBOIS         FAIR      36  14  41 NW13      30.30S WCI  27
LANDER         NOT AVBL
RIVERTON       FAIR      44  19  36 W14       30.20F
CASPER         FAIR      42  16  34 SW10      30.20S
DOUGLAS        FAIR      27  21  78 CALM      30.18F

$$
WYZ021-027>030-104>119-171200-
SOUTHERN WYOMING

CITY           SKY/WX    TMP DP  RH WIND       PRES   REMARKS
EVANSTON       FAIR      42   5  21 S7        30.39F
KEMMERER       FAIR      32  14  47 NW9       30.40S WCI  24
FORT BRIDGER   FAIR      42   2  19 W8        30.40F
ROCK SPRINGS   FAIR      40   3  21 W14       30.36S WCI  32
DIXON          FAIR      24  14  66 CALM      30.41S
RAWLINS        FAIR      44   7  21 SW18      30.31F
SARATOGA       FAIR      32  10  40 SE9       30.36S WCI  24
LARAMIE        FAIR      34   9  35 SW8       30.32F WCI  27
CHEYENNE       FAIR      44   9  23 SW10      30.27S
TORRINGTON     FAIR      32  23  69 N5        30.16S WCI  27
PINE BLUFFS    FAIR      30  19  64 MISG      30.24S

$$




USA.gov is the U.S. government's official web portal to all federal, state and local government web resources and services.